HELIOS 2A

导读

HELIOS 2A(太阳神2A)是法国(FR)联合欧洲伙伴开发的军用光学侦察卫星,于2004年12月18日发射入轨。作为第二代太阳神侦察卫星的首星,它搭载高分辨率光学成像设备,可提供高精度地面图像,服务于军事侦察、地缘监测等任务,大幅提升了欧洲自主天基情报获取能力,接替第一代HELIOS卫星承担战略监视职责。

基本信息
目录编号:
28492
目录名称:
HELIOS 2A
国际标识:
2004-049A
轨道中心:
EARTH
卫星名称:
HELIOS 2A
卫星全名:
--
卫星状态:
在轨 (已飞行7930 天)
发射日期:
2004-12-18 UTC
国别 :
法国 (FR)
星等 :
--
轨道信息
数据来源 国际轨道数据
星历时间: 2026-09-04T14:21:28+0800
6小时前
查看轨道信息
半长轴: 6935.789km
偏心率: 0.000371
轨道倾角: 98.247°
近地点辐角 66.171°
升交点赤经 306.096°
平近点角 293.990°
近地点: 555.078km
远地点: 560.226km
周期: 95.808分钟
每日圈数: 15.030002
详细信息
使用方式:
暂无
2D轨道图
3D轨道图
轨道高度分析图
轨道倾角分析图
轨道综合分析图
查看轨道综合分析图